www.pogodaiklimat.ru

Погода и климат >> Архив погоды >> Бразилия >> Esperantina


ПОГОДА в Esperantina

  • Прогноз погоды в Esperantina
  • Монитор погоды в Esperantina
  • Климат города

АРХИВ ПОГОДЫ в Esperantina

Время (UTC), дата Ветер
(напр.,м/с)
 
Видим.   Явления Облачность Т
(С)
Тd
(С)
f
(%)
Тe
(С)
Тes
(С)
Комфортность P
(гПа)
Po
(гПа)
Тmin
(С)
Tmax
(С)
R
(мм)
R24
(мм)
S
(см)
04 14.04 штиль 0 н/о н/о +24.1 +23.1 94 +32 +32 очень
душно
1013.9 1003.7
05 14.04 штиль 0 н/о н/о +23.8 +22.8 94 +31 +31 очень
душно
1013.2 1003.0
06 14.04 штиль 0 н/о н/о +23.8 +22.9 95 +32 +32 очень
душно
1013.3 1003.1
08 14.04 штиль 0 н/о н/о +23.7 +22.9 95 +31 +31 очень
душно
1013.8 1003.6 0.2
07 14.04 штиль 0 н/о н/о +23.8 +22.8 94 +31 +31 очень
душно
1013.4 1003.2
10 14.04 штиль 0 н/о н/о +24.0 +23.1 95 +32 +32 очень
душно
1015.0 1004.8 7
11 14.04 штиль 0 н/о н/о +24.5 +23.6 95 +33 +33 очень
душно
1015.8 1005.6
12 14.04 штиль 0 н/о н/о +25.1 +23.7 92 +34 +34 очень
душно
1016.3 1006.1 3
14 14.04 штиль 0 н/о н/о +29.1 +23.6 72 +40 +40 очень
душно
1015.6 1005.5
13 14.04 штиль 0 н/о н/о +27.5 +23.6 79 +37 +37 очень
душно
1016.1 1006.0
15 14.04 штиль 0 н/о н/о +27.8 +23.2 76 +37 +37 очень
душно
1014.7 1004.6
16 14.04 штиль 0
{3}
н/о н/о +28.4 +23.0 73 +38 +38 очень
душно
1013.6 1003.5
17 14.04 штиль 0 н/о н/о +30.2 +23.4 67 +41 +41 опасность
перегрева
1012.5 1002.5
18 14.04 штиль 0 н/о н/о +29.8 +22.5 65 +39 +39 очень
душно
1011.6 1001.6
20 14.04 штиль 0
{3}
н/о н/о +25.7 +23.7 89 +35 +35 очень
душно
1012.3 1002.2
19 14.04 штиль 0 н/о н/о +28.7 +23.7 74 +39 +39 очень
душно
1011.8 1001.8
21 14.04 штиль 0
{1}
н/о н/о +24.8 +23.0 90 +33 +33 очень
душно
1013.1 1002.9
22 14.04 штиль 0 н/о н/о +24.7 +23.2 91 +33 +33 очень
душно
1014.1 1003.9
23 14.04 штиль 0 н/о н/о +24.5 +23.2 92 +33 +33 очень
душно
1014.9 1004.7
00 15.04 штиль 0 н/о н/о +24.5 +23.3 93 +33 +33 очень
душно
1015.7 1005.5
02 15.04 штиль 0 н/о н/о +24.0 +23.0 94 +32 +32 очень
душно
1016.0 1005.8
01 15.04 штиль 0 н/о н/о +24.2 +23.1 94 +32 +32 очень
душно
1015.9 1005.7
03 15.04 штиль 0 н/о н/о +23.6 +22.7 95 +31 +31 очень
душно
1015.4 1005.2
04 15.04 штиль 0 н/о н/о +23.3 +22.4 95 +32 +32 очень
душно
1014.7 1004.5
05 15.04 штиль 0 н/о н/о +23.1 +22.3 95 +32 +32 очень
душно
1013.9 1003.7
06 15.04 штиль 0 н/о н/о +23.0 +22.1 95 +31 +31 очень
душно
1013.7 1003.5
08 15.04 штиль 0 н/о н/о +22.7 +21.9 95 +30 +30 очень
душно
1013.7 1003.4
07 15.04 штиль 0 н/о н/о +23.0 +22.1 95 +31 +31 очень
душно
1013.5 1003.3
09 15.04 штиль 0 н/о н/о +22.8 +22.0 95 +31 +31 очень
душно
1014.3 1004.0
10 15.04 штиль 0 н/о н/о +24.0 +23.2 95 +32 +32 очень
душно
1014.7 1004.5
11 15.04 штиль 0 н/о н/о +26.3 +25.3 94 +38 +38 очень
душно
1015.5 1005.4 0.2
12 15.04 штиль 0 н/о н/о +26.8 +23.5 82 +36 +36 очень
душно
1015.8 1005.7
14 15.04 штиль 0 н/о н/о +29.9 +23.2 67 +40 +40 очень
душно
1015.5 1005.5
13 15.04 штиль 0 н/о н/о +29.2 +22.9 69 +39 +39 очень
душно
1016.0 1005.9
15 15.04 штиль 0 н/о н/о +28.8 +23.1 71 +39 +39 очень
душно
1014.7 1004.6
16 15.04 штиль 0 н/о н/о +31.6 +23.4 62 +42 +42 опасность
перегрева
1013.0 1003.1
17 15.04 штиль 0 н/о н/о +33.0 +22.3 53 +42 +42 опасность
перегрева
1011.4 1001.5
18 15.04 штиль 0 н/о н/о +31.5 +22.4 59 +41 +41 опасность
перегрева
1011.0 1001.1
20 15.04 штиль 0
{6}
н/о н/о +22.6 +21.5 94 +30 +30 очень
душно
1011.9 1001.7 6
19 15.04 штиль 0 н/о н/о +31.9 +22.4 57 +41 +41 опасность
перегрева
1010.9 1001.0
21 15.04 штиль 0 н/о н/о +23.2 +22.2 94 +32 +32 очень
душно
1012.8 1002.6
22 15.04 штиль 0 н/о н/о +23.2 +21.8 92 +31 +31 очень
душно
1013.4 1003.2
23 15.04 штиль 0 н/о н/о +23.4 +21.9 91 +32 +32 очень
душно
1013.9 1003.7
00 16.04 ЮВ 1
{3}
н/о н/о +23.9 +22.8 94 +32 +32 очень
душно
1015.3 1005.1
02 16.04 штиль 0
{1}
н/о н/о +24.3 +23.3 94 +33 +33 очень
душно
1015.4 1005.2
01 16.04 штиль 0
{3}
н/о н/о +24.4 +23.4 94 +33 +33 очень
душно
1015.4 1005.2
03 16.04 ЮЗ 1
{1}
н/о н/о +24.3 +23.3 94 +33 +33 очень
душно
1015.1 1004.9 0.4
04 16.04 штиль 0
{1}
н/о н/о +24.0 +23.1 95 +32 +32 очень
душно
1014.2 1004.0
05 16.04 штиль 0 н/о н/о +23.8 +22.9 95 +32 +32 очень
душно
1013.4 1003.2
06 16.04 штиль 0 н/о н/о +23.6 +22.7 95 +31 +31 очень
душно
1012.8 1002.6
08 16.04 штиль 0 н/о н/о +23.4 +22.6 95 +32 +32 очень
душно
1012.5 1002.3
07 16.04 штиль 0 н/о н/о +23.7 +22.8 95 +31 +31 очень
душно
1012.5 1002.3
09 16.04 штиль 0 н/о н/о +23.1 +22.3 95 +32 +32 очень
душно
1012.8 1002.6
10 16.04 штиль 0 н/о н/о +23.6 +22.8 95 +31 +31 очень
душно
1013.7 1003.5
11 16.04 штиль 0 н/о н/о +26.4 +25.0 92 +38 +38 очень
душно
1014.6 1004.5
12 16.04 штиль 0 н/о н/о +27.6 +23.7 79 +38 +38 очень
душно
1015.0 1004.9
14 16.04 штиль 0 н/о н/о +29.6 +23.8 71 +41 +41 опасность
перегрева
1014.5 1004.5
13 16.04 штиль 0 н/о н/о +29.1 +23.6 72 +40 +40 очень
душно
1015.1 1005.0
15 16.04 штиль 0 н/о н/о +30.3 +24.4 71 +43 +43 опасность
перегрева
1013.1 1003.1
16 16.04 С 1
{3}
н/о н/о +29.5 +23.7 71 +40 +40 очень
душно
1012.2 1002.2
17 16.04 СЗ 2
{4}
н/о н/о +29.0 +23.9 74 +40 +40 очень
душно
1011.1 1001.1
18 16.04 С 2
{4}
н/о н/о +27.7 +23.6 78 +38 +38 очень
душно
1011.3 1001.2
20 16.04 штиль 0
{2}
н/о н/о +22.4 +21.1 92 +29 +29 очень
душно
1012.5 1002.2 1
19 16.04 штиль 0
{4}
н/о н/о +23.7 +21.8 89 +30 +30 очень
душно
1012.5 1002.3 1
21 16.04 штиль 0
{1}
н/о н/о +22.0 +20.9 93 +28 +28 душно 1012.8 1002.5 2
22 16.04 штиль 0
{2}
н/о н/о +22.0 +21.1 95 +28 +28 душно 1013.3 1003.0 0.6
23 16.04 штиль 0
{1}
н/о н/о +22.3 +21.3 94 +29 +29 очень
душно
1014.0 1003.7
00 17.04 штиль 0 н/о н/о +22.7 +21.8 95 +30 +30 очень
душно
1014.9 1004.6
02 17.04 штиль 0 н/о н/о +22.9 +22.0 95 +31 +31 очень
душно
1015.2 1004.9
01 17.04 штиль 0 н/о н/о +22.8 +21.9 95 +31 +31 очень
душно
1015.2 1004.9
03 17.04 штиль 0 н/о н/о +22.8 +22.0 95 +31 +31 очень
душно
1014.6 1004.3
04 17.04 штиль 0 н/о н/о +22.7 +21.9 95 +30 +30 очень
душно
1013.8 1003.5
05 17.04 штиль 0 н/о н/о +22.5 +21.7 95 +30 +30 очень
душно
1013.3 1003.0
06 17.04 штиль 0 н/о н/о +22.8 +22.0 95 +31 +31 очень
душно
1012.7 1002.5
08 17.04 штиль 0 н/о н/о +23.1 +22.3 95 +32 +32 очень
душно
1012.9 1002.7
07 17.04 штиль 0 н/о н/о +23.1 +22.3 95 +32 +32 очень
душно
1012.6 1002.4
09 17.04 штиль 0 н/о н/о +23.2 +22.3 95 +32 +32 очень
душно
1013.5 1003.3
10 17.04 штиль 0 н/о н/о +23.5 +22.7 95 +31 +31 очень
душно
1014.3 1004.1
11 17.04 штиль 0
{2}
н/о н/о +26.6 +23.7 84 +36 +36 очень
душно
1014.5 1004.4
12 17.04 штиль 0
{2}
н/о н/о +26.5 +22.6 79 +35 +35 очень
душно
1014.9 1004.8
14 17.04 штиль 0
{2}
н/о н/о +28.0 +22.6 73 +37 +37 очень
душно
1015.2 1005.1
13 17.04 штиль 0 н/о н/о +27.6 +22.8 75 +37 +37 очень
душно
1015.3 1005.2
15 17.04 СВ 1
{2}
н/о н/о +28.9 +23.5 73 +39 +39 очень
душно
1014.4 1004.3
16 17.04 В 1
{4}
н/о н/о +27.6 +21.2 68 +35 +35 очень
душно
1013.6 1003.5
17 17.04 штиль 0
{4}
н/о н/о +29.9 +23.1 67 +40 +40 очень
душно
1012.7 1002.7
18 17.04 Ю 1
{3}
н/о н/о +27.4 +21.6 71 +35 +35 очень
душно
1013.1 1003.0
20 17.04 штиль 0
{1}
н/о н/о +23.0 +21.9 94 +31 +31 очень
душно
1014.0 1003.8 1
19 17.04 штиль 0
{5}
н/о н/о +22.9 +21.7 93 +31 +31 очень
душно
1013.9 1003.7 0.6
21 17.04 штиль 0 н/о н/о +23.2 +22.2 94 +32 +32 очень
душно
1014.4 1004.2 0.8
22 17.04 штиль 0
{1}
н/о н/о +23.2 +22.2 94 +32 +32 очень
душно
1014.6 1004.4 0.4
23 17.04 штиль 0 н/о н/о +23.1 +22.1 94 +31 +31 очень
душно
1014.8 1004.5
00 18.04 штиль 0 н/о н/о +23.1 +22.1 94 +31 +31 очень
душно
1015.3 1005.0
02 18.04 штиль 0
{1}
н/о н/о +23.0 +22.0 94 +31 +31 очень
душно
1015.6 1005.3
01 18.04 штиль 0
{1}
н/о н/о +23.0 +22.0 94 +31 +31 очень
душно
1015.3 1005.0
03 18.04 штиль 0 н/о н/о +22.7 +21.8 95 +30 +30 очень
душно
1015.3 1005.0
04 18.04 штиль 0 н/о н/о +22.6 +21.7 95 +30 +30 очень
душно
1014.8 1004.5
05 18.04 штиль 0 н/о н/о +22.5 +21.6 95 +30 +30 очень
душно
1014.4 1004.1
06 18.04 штиль 0 н/о н/о +22.3 +21.5 95 +29 +29 очень
душно
1014.3 1004.0
08 18.04 штиль 0 н/о н/о +22.2 +21.4 95 +29 +29 очень
душно
1014.5 1004.2
07 18.04 штиль 0 н/о н/о +22.4 +21.6 95 +30 +30 очень
душно
1014.1 1003.8
09 18.04 штиль 0 н/о н/о +21.6 +20.8 95 +27 +27 душно 1014.5 1004.2
10 18.04 штиль 0 н/о н/о +22.5 +21.8 96 +30 +30 очень
душно
1015.4 1005.1
11 18.04 штиль 0 н/о н/о +25.9 +22.7 83 +34 +34 очень
душно
1015.9 1005.7
12 18.04 штиль 0
{2}
н/о н/о +27.8 +22.6 73 +37 +37 очень
душно
1015.9 1005.8
14 18.04 СВ 1
{3}
н/о н/о +30.8 +23.6 66 +42 +42 опасность
перегрева
1015.5 1005.5
13 18.04 В 1
{2}
н/о н/о +29.6 +23.4 69 +40 +40 очень
душно
1015.7 1005.7
15 18.04 В 1
{3}
н/о н/о +31.5 +23.1 61 +42 +42 опасность
перегрева
1014.7 1004.7
16 18.04 В 1
{3}
н/о н/о +32.2 +23.0 58 +42 +42 опасность
перегрева
1013.7 1003.8
17 18.04 штиль 0
{3}
н/о н/о +31.7 +22.8 59 +41 +41 опасность
перегрева
1012.8 1002.9
18 18.04 штиль 0
{4}
н/о н/о +29.6 +21.8 63 +38 +38 очень
душно
1012.6 1002.6
20 18.04 штиль 0
{3}
н/о н/о +26.9 +23.5 82 +37 +37 очень
душно
1012.6 1002.5
19 18.04 С 1
{3}
н/о н/о +28.3 +22.9 73 +38 +38 очень
душно
1012.5 1002.4
21 18.04 штиль 0
{1}
н/о н/о +26.5 +23.8 85 +36 +36 очень
душно
1013.1 1003.0
22 18.04 С 1
{2}
н/о н/о +26.2 +24.1 88 +36 +36 очень
душно
1014.0 1003.9
23 18.04 С 1
{2}
н/о н/о +25.9 +23.3 86 +35 +35 очень
душно
1014.7 1004.5
02 19.04 штиль 0 н/о н/о +24.0 +22.9 94 +32 +32 очень
душно
1016.0 1005.8
01 19.04 штиль 0 н/о н/о +24.5 +23.1 92 +33 +33 очень
душно
1016.0 1005.8
03 19.04 штиль 0 н/о н/о +23.8 +22.8 94 +31 +31 очень
душно
1015.7 1005.5
04 19.04 штиль 0 н/о н/о +23.7 +22.7 94 +31 +31 очень
душно
1015.0 1004.8
05 19.04 штиль 0 н/о н/о +23.7 +22.8 95 +31 +31 очень
душно
1014.4 1004.2
06 19.04 штиль 0 н/о н/о +23.2 +22.3 95 +32 +32 очень
душно
1014.3 1004.1
08 19.04 штиль 0 н/о н/о +22.5 +21.7 95 +30 +30 очень
душно
1014.7 1004.4
07 19.04 штиль 0 н/о н/о +23.0 +22.1 95 +31 +31 очень
душно
1014.6 1004.3
09 19.04 штиль 0 н/о н/о +22.6 +21.8 95 +30 +30 очень
душно
1014.9 1004.6
10 19.04 штиль 0 н/о н/о +23.6 +22.8 95 +31 +31 очень
душно
1015.3 1005.1
11 19.04 штиль 0
{1}
н/о н/о +24.2 +23.4 95 +32 +32 очень
душно
1015.5 1005.3
12 19.04 штиль 0
{2}
н/о н/о +27.6 +22.8 75 +37 +37 очень
душно
1015.8 1005.7
14 19.04 В 2
{3}
н/о н/о +31.1 +22.7 61 +41 +41 опасность
перегрева
1015.1 1005.1
13 19.04 штиль 0
{2}
н/о н/о +29.9 +23.9 70 +41 +41 опасность
перегрева
1015.6 1005.6
15 19.04 ЮВ 1
{3}
н/о н/о +30.5 +23.0 64 +40 +40 очень
душно
1014.5 1004.5
16 19.04 В 1
{3}
н/о н/о +31.8 +22.6 58 +41 +41 опасность
перегрева
1013.6 1003.7
17 19.04 штиль 0
{2}
н/о н/о +31.5 +22.3 58 +41 +41 опасность
перегрева
1012.7 1002.8
18 19.04 штиль 0
{2}
н/о н/о +31.4 +23.0 61 +42 +42 опасность
перегрева
1012.2 1002.3
20 19.04 штиль 0
{1}
н/о н/о +29.4 +24.4 75 +42 +42 опасность
перегрева
1012.4 1002.4
19 19.04 штиль 0
{1}
н/о н/о +30.8 +23.1 64 +41 +41 опасность
перегрева
1012.1 1002.1
21 19.04 штиль 0 н/о н/о +27.1 +24.4 85 +38 +38 очень
душно
1012.8 1002.7
22 19.04 штиль 0 н/о н/о +26.4 +24.3 88 +37 +37 очень
душно
1013.4 1003.3
23 19.04 штиль 0 н/о н/о +25.6 +23.9 90 +35 +35 очень
душно
1014.1 1003.9
00 20.04 штиль 0 н/о н/о +25.4 +23.9 91 +35 +35 очень
душно
1014.8 1004.6
02 20.04 штиль 0 н/о н/о +24.7 +23.2 91 +33 +33 очень
душно
1014.9 1004.7
01 20.04 штиль 0
{1}
н/о н/о +25.1 +23.2 89 +34 +34 очень
душно
1015.2 1005.0
03 20.04 штиль 0 н/о н/о +24.0 +22.9 94 +32 +32 очень
душно
1014.6 1004.4
04 20.04 штиль 0 н/о н/о +24.0 +23.0 94 +32 +32 очень
душно
1014.0 1003.8
05 20.04 штиль 0 н/о н/о +23.2 +22.3 95 +32 +32 очень
душно
1013.5 1003.3
06 20.04 штиль 0 н/о н/о +23.0 +22.2 95 +31 +31 очень
душно
1013.4 1003.2
08 20.04 штиль 0 н/о н/о +22.3 +21.5 95 +29 +29 очень
душно
1013.5 1003.2
07 20.04 штиль 0 н/о н/о +22.5 +21.7 95 +30 +30 очень
душно
1013.3 1003.0
09 20.04 штиль 0 н/о н/о +22.7 +21.9 95 +30 +30 очень
душно
1014.0 1003.7
10 20.04 штиль 0 н/о н/о +23.5 +22.7 95 +31 +31 очень
душно
1014.4 1004.2
11 20.04 штиль 0 н/о н/о +25.1 +24.2 95 +35 +35 очень
душно
1015.0 1004.8
12 20.04 штиль 0
{2}
н/о н/о +27.9 +23.1 75 +37 +37 очень
душно
1015.0 1004.9
14 20.04 штиль 0
{2}
н/о н/о +31.1 +23.0 62 +41 +41 опасность
перегрева
1014.2 1004.2
13 20.04 СВ 1
{2}
н/о н/о +30.1 +22.9 65 +40 +40 очень
душно
1014.6 1004.6
15 20.04 штиль 0
{2}
н/о н/о +31.2 +22.0 58 +40 +40 очень
душно
1013.4 1003.4
16 20.04 штиль 0
{2}
н/о н/о +31.3 +22.2 59 +40 +40 очень
душно
1012.4 1002.4
17 20.04 штиль 0
{2}
н/о н/о +32.1 +22.1 56 +41 +41 опасность
перегрева
1011.3 1001.4
18 20.04 Ю 1
{3}
н/о н/о +31.6 +22.5 59 +41 +41 опасность
перегрева
1010.6 1000.7
20 20.04 Ю 1
{3}
н/о н/о +29.3 +23.3 70 +40 +40 очень
душно
1010.7 1000.7
19 20.04 штиль 0
{2}
н/о н/о +32.0 +23.0 59 +42 +42 опасность
перегрева
1010.5 1000.6
21 20.04 штиль 0
{3}
н/о н/о +26.6 +23.4 83 +36 +36 очень
душно
1011.3 1001.2
22 20.04 штиль 0
{3}
н/о н/о +25.6 +22.7 84 +34 +34 очень
душно
1011.7 1001.6
23 20.04 С 1
{2}
н/о н/о +25.4 +22.5 84 +33 +33 очень
душно
1012.9 1002.7
00 21.04 СВ 1
{2}
н/о н/о +26.1 +23.4 85 +35 +35 очень
душно
1013.4 1003.3
02 21.04 штиль 0
{2}
н/о н/о +25.4 +23.4 89 +34 +34 очень
душно
1013.4 1003.2
01 21.04 С 1
{2}
н/о н/о +25.8 +23.2 86 +35 +35 очень
душно
1013.2 1003.1
03 21.04 штиль 0
{1}
н/о н/о +24.9 +23.3 91 +33 +33 очень
душно
1012.7 1002.5
04 21.04 С 1
{1}
н/о н/о +24.7 +23.3 92 +33 +33 очень
душно
1012.2 1002.0

 

Местоположение метеостанции Esperantina (Бразилия): широта -3.90 долгота -42.27 высота над уровнем моря 67 м.

В архиве по умолчанию представлена погода в Esperantina за последнюю неделю. Архивные данные за месяц целиком и за предыдущие месяцы, начиная с января 2011 года, Вы можете получить, выбрав интересующий диапазон дат из раскрывающегося списка и нажав кнопку "Ввод!".


*Определитесь, кто Вы:
робот инопланетянин человек

Внимание! Время в таблицах - всемирное. Для получения местного времени необходимо прибавить поправку, которая в Esperantina равна -3 ч.

Смотрите также архив погоды в соседних городах и на ближайших метеорологических станциях:

Погода в Piripiri (Бразилия) (67 км)
Погода в Parnaiba (Бразилия) (106 км)
Погода в Parnaiba (Бразилия) (107 км)
Погода в Chapadinha (Бразилия) (121 км)
Погода в Teresina (Бразилия) (140 км)
Погода в Teresina (Бразилия) (141 км)
Погода в Caxias (Бразилия) (158 км)
Погода в Caxias (Бразилия) (161 км)
Погода в Castelo do Piaui (Бразилия) (181 км)
Погода в Sobral (Бразилия) (214 км)

Пояснения к столбцам:

Ветер - указаны скорость ветра в м/с - средняя за 10 мин, порывы в срок и между сроками (в фигурных скобках) и направление, откуда дует ветер: С - северный, СВ - северо-восточный, В - восточный, ЮВ - юго-восточный, Ю - южный, ЮЗ - юго-западный, З - западный, СЗ - северо-западный.
Видимость - горизонтальная дальность видимости в метрах или километрах. При видимости от 1 до 10 км при отсутствии осадков обычно наблюдается дымка, при ухудшении видимости до 1 км и менее - туман. В сухую погоду видимость может ухудшаться дымом, пылью или мглою.
Явления - указаны атмосферные явления, наблюдавшиеся в срок или в последний час перед сроком; фигурными скобками обозначены явления, наблюдавшиеся между сроками (за 1-3 часа до срока); квадратными скобками обозначены град или гололедные отложения с указанием их диаметра в мм.
Облачность - указаны через наклонную черту общая и нижняя облачность в баллах и высота нижней границы облаков в метрах; квадратными скобками обозначены формы облаков: Ci - перистые, Cs - перисто-слоистые, Cc - перисто-кучевые, Ac - высококучевые, As - высокослоистые, Sc - слоисто-кучевые, Ns - слоисто-дождевые, Cu - кучевые, Cb - кучево-дождевые. Подробнее классификацию облаков см. в Атласе облаков (PDF).
T - Температура воздуха - температура, измеренная на высоте 2 м над землей.
Td - Температура точки росы - температура, при понижении до которой содержащийся в воздухе водяной пар достигнет насыщения.
f - Относительная влажность воздуха - влажноcть воздуха, измеренная на высоте 2 м над землей.
Te - Эффективная температура - температура, которую ощущает одетый по сезону человек в тени. Характеристика душности погоды. При расчете учитывается влияние влажности воздуха и скорости ветра на теплоощущения человека.
Tes - Эффективная температура на солнце - температура, которую ощущает человек, с поправкой на солнечный нагрев. Характеристика знойности погоды. Зависит от высоты солнца над горизонтом, облачности и скорости ветра. Ночью, в пасмурную погоду, а также при ветре 12 м/с и более поправка равна нулю.
P - Атмосферное давление - приведенное к уровню моря атмосферное давление.
Po - Атмосферное давление - измеренное на уровне метеостанции атмосферное давление.
Tmin - Минимальная температура - минимум температуры воздуха на высоте 2 м над землей.
Tmax - Максимальная температура - максимум температуры воздуха на высоте 2 м над землей.
R - Количество осадков - Количество выпавших осадков за период времени, мм. При наведении курсора мыши на число - период времени, за который выпало указанное количество осадков.
R24 - Количество осадков - Количество выпавших осадков за 24 часа, мм.
S - Снежный покров - Высота снежного покрова, см. При наведении курсора мыши на число - состояние снежного покрова и степень покрытия местности в баллах.